Погода в Якты-Куле

Россия / Республика Башкортостан     53°34′12″N   58°37′20″E
темп.,
°C
ветер,
м/с
пор.,
м/с
влажн.,
%
обл.,
%
осадки,
мм/ч
давл.,
гПа
погр.,
м
16 апреля, пт
пт1623:00+7зсз22690 0.0 102310
02:00+5зсз22690 0.0 102210
05:00+4зсз22710 0.0 102210
08:00+6ссз22834 0.0 102224
11:00+12всв24560 0.0 1020433
14:00+15в44470 0.0 10201205
17:00+15в44425 0.0 10201706
20:00+9св479023 0.0 1022251
17 апреля, сб
сб1723:00+7всв3792100 0.0 1024541
02:00+6всв2494100 0.0 1024349
05:00+5всв2294100 0.0 1025218
08:00+6вюв119296 0.0 1025153
11:00+8юв228177 0.0 1024437
14:00+11ююв326724 0.0 1022891
17:00+13ю225922 0.0 10211041
20:00+10ю227336 0.1 102030
18 апреля, вс
вс1823:00+8зсз118019 0.1 102010
02:00+6с33915 0.0 102153
05:00+4всв119647 0.0 102110
08:00+5юв118682 0.0 1021183
11:00+9ссв125922 0.0 1021960
14:00+11св324523 0.0 10201671
17:00+10всв544178 0.0 10211576
20:00+4всв897093 0.0 1025877
19 апреля, пн
пн1923:000всв7105897 0.0 1029875
02:00−1в71057100 0.0 1030881
05:00−3в7961100 0.0 1032908
08:00−3в795798 0.0 1034935
11:00−1в894192 0.0 10341107
14:00+1в7834100 0.0 10331304
17:00+1в7833100 0.0 10331398
20:00−2в610400 0.0 1035680
20 апреля, вт
вт2023:00−3в610460 0.0 1036834
02:00−4в69490 0.0 1037819
05:00−5в510520 0.0 1038731
08:00−4в69440 0.0 1039737
11:000вюв67320 0.0 1038877
14:00+3вюв56280 0.0 10371014
17:00+4вюв44290 0.0 1035964
20:000юв22440 0.0 103612